Weather History for Lubbock, TX

Change the Weather History Date:

Sunday, February 9, 2014

  Actual Average Record
Temperature  
Mean Temperature 49 °F 43 °F  
Max Temperature 72 °F 58 °F 83 °F (1976)
Min Temperature 26 °F 29 °F 0 °F (1933)
Degree Days  
Heating Degree Days 16 22  
Month to date heating degree days 301 203  
Since 1 July heating degree days 2529 2368  
Cooling Degree Days 0 0  
Month to date cooling degree days 0 0  
Year to date cooling degree days 0 0  
Moisture  
Dew Point 26 °F    
Average Humidity 62    
Maximum Humidity 100    
Minimum Humidity 24    
Precipitation  
Precipitation T in 0.03 in 0.34 in (1990)
Month to date precipitation 0.16 0.24  
Year to date precipitation 0.16 0.89  
Snow  
Snow 0.00 in 0.10 in - ()
Month to date snowfall 1.8 0.7  
Since 1 July snowfall 4.2 6.5  
Snow Depth 0.00 in    
Sea Level Pressure  
Sea Level Pressure 29.98 in    
Wind  
Wind Speed 12 mph (NE)    
Max Wind Speed 23 mph    
Max Gust Speed 27 mph    
Visibility 7 miles    
Events Fog    
T = Trace of Precipitation, MM = Missing Value Source: NWS Daily Summary

Daily Weather History Graph

Daily Weather History Graph

Search for Another Location

Airport:

Trip Planner

Search our weather history database for the weather conditions in past years. The results will help you decide how hot, cold, wet, or windy it might be!

Date:

Astronomy

Feb. 09, 2014 Rise Set
Actual Time 7:37 AM CST 6:26 PM CST
Civil Twilight 7:11 AM CST 6:51 PM CST
Nautical Twilight 6:42 AM CST 7:21 PM CST
Astronomical Twilight 6:12 AM CST 7:50 PM CST
Moon 2:12 PM CST (2/9) 3:39 AM CST (2/9)
Length of Visible Light 11h 40m
Length of Day
10h 48m
Waxing Gibbous, 77% of the Moon is Illuminated
Feb 9
Waxing Gibbous
Feb 14
Full
Feb 22
Last Quarter
Mar 1
New
Mar 8
First Quarter

Hourly Weather History & Observations

Time (CST) Temp. Windchill Dew Point Humidity Pressure Visibility Wind Dir Wind Speed Gust Speed Precip Events Conditions
12:53 AM 41.0 °F 34.7 °F 25.0 °F 53% 29.97 in 10.0 mi West 10.4 mph - N/A   Clear
1:53 AM 37.9 °F 30.5 °F 24.1 °F 57% 29.97 in 10.0 mi WNW 11.5 mph - N/A   Partly Cloudy
2:53 AM 41.0 °F 33.5 °F 25.0 °F 53% 29.94 in 10.0 mi NW 13.8 mph - N/A   Scattered Clouds
3:53 AM 43.0 °F 36.0 °F 26.1 °F 51% 29.91 in 10.0 mi WNW 13.8 mph - N/A   Scattered Clouds
4:53 AM 39.9 °F 35.1 °F 25.0 °F 55% 29.91 in 10.0 mi West 6.9 mph - N/A   Scattered Clouds
5:53 AM 41.0 °F 35.2 °F 24.1 °F 51% 29.91 in 10.0 mi WSW 9.2 mph - N/A   Partly Cloudy
6:53 AM 35.1 °F 28.6 °F 24.1 °F 64% 29.94 in 10.0 mi WSW 8.1 mph - N/A   Scattered Clouds
7:53 AM 37.9 °F 31.5 °F 24.1 °F 57% 29.96 in 10.0 mi West 9.2 mph - N/A   Mostly Cloudy
8:53 AM 46.9 °F - 25.0 °F 42% 29.96 in 10.0 mi West 8.1 mph - N/A   Mostly Cloudy
9:53 AM 53.1 °F - 26.1 °F 35% 29.96 in 10.0 mi WSW 9.2 mph - N/A   Mostly Cloudy
10:53 AM 57.9 °F - 26.1 °F 30% 29.96 in 10.0 mi WSW 5.8 mph - N/A   Mostly Cloudy
11:53 AM 64.9 °F - 26.1 °F 23% 29.91 in 10.0 mi SW 10.4 mph - N/A   Mostly Cloudy
12:53 PM 66.0 °F - 28.0 °F 24% 29.90 in 10.0 mi East 17.3 mph - N/A   Mostly Cloudy
1:53 PM 62.1 °F - 30.0 °F 30% 29.88 in 10.0 mi East 16.1 mph 21.9 mph N/A   Scattered Clouds
2:53 PM 52.0 °F - 28.0 °F 40% 29.90 in 10.0 mi ENE 19.6 mph - N/A   Mostly Cloudy
3:53 PM 45.0 °F 37.4 °F 28.0 °F 52% 29.92 in 10.0 mi ENE 18.4 mph 24.2 mph N/A   Mostly Cloudy
4:53 PM 39.0 °F 31.0 °F 28.0 °F 65% 29.97 in 10.0 mi ENE 13.8 mph 23.0 mph N/A   Partly Cloudy
5:14 PM 36.0 °F 26.0 °F 27.0 °F 70% 29.98 in 10.0 mi NE 17.3 mph 23.0 mph N/A   Mostly Cloudy
5:53 PM 32.0 °F 20.1 °F 26.1 °F 79% 29.99 in 8.0 mi ENE 19.6 mph - N/A   Overcast
6:53 PM 30.0 °F 19.1 °F 26.1 °F 85% 30.04 in 6.0 mi ENE 15.0 mph - N/A   Overcast
7:18 PM 28.9 °F 18.2 °F 26.1 °F 89% 30.02 in 5.0 mi East 13.8 mph - N/A   Overcast
7:42 PM 28.0 °F 17.0 °F 26.1 °F 92% 30.03 in 2.5 mi East 13.8 mph - N/A   Overcast
7:53 PM 28.0 °F 16.5 °F 26.1 °F 92% 30.06 in 2.5 mi ENE 15.0 mph - N/A   Overcast
8:13 PM 28.0 °F 17.0 °F 26.1 °F 92% 30.05 in 1.5 mi ENE 13.8 mph - N/A   Overcast
8:53 PM 27.0 °F 15.6 °F 26.1 °F 96% 30.07 in 1.2 mi NE 13.8 mph - N/A   Overcast
9:09 PM 27.0 °F 15.6 °F 26.1 °F 96% 30.07 in 0.5 mi NE 13.8 mph - N/A Fog Light Freezing Fog
9:23 PM 27.0 °F 16.7 °F 25.0 °F 92% 30.08 in 1.5 mi East 11.5 mph - N/A   Overcast
9:53 PM 27.0 °F 16.1 °F 25.0 °F 92% 30.07 in 1.5 mi East 12.7 mph - N/A   Overcast
10:53 PM 26.1 °F 15.0 °F 25.0 °F 96% 30.09 in 1.2 mi ENE 12.7 mph - N/A   Overcast
11:53 PM 26.1 °F 15.0 °F 25.0 °F 96% 30.09 in 1.5 mi NE 12.7 mph - 0.00 in   Light Freezing Drizzle